Year,Month,Day,Hour,Minute,Value (Times are PST for temperature in C)
2007,06,25,00,00,10.10
2007,06,25,00,01,10.10
2007,06,25,00,02,10.10
2007,06,25,00,03,10.10
2007,06,25,00,04,10.10
2007,06,25,00,05,10.10
2007,06,25,00,06,10.10
2007,06,25,00,07,10.10
2007,06,25,00,08,10.10
2007,06,25,00,09,10.10
2007,06,25,00,10,10.10
2007,06,25,00,11,10.10
2007,06,25,00,12,10.10
2007,06,25,00,13,10.10
2007,06,25,00,14,10.10
2007,06,25,00,15,10.10
2007,06,25,00,16,10.10
2007,06,25,00,17,9.90
2007,06,25,00,18,9.90
2007,06,25,00,19,9.90
2007,06,25,00,20,9.90
2007,06,25,00,21,9.90
2007,06,25,00,22,9.90
2007,06,25,00,23,9.90
2007,06,25,00,24,9.90
2007,06,25,00,25,9.90
2007,06,25,00,26,9.90
2007,06,25,00,27,9.90
2007,06,25,00,28,9.90
2007,06,25,00,29,9.90
2007,06,25,00,30,9.90
2007,06,25,00,31,9.90
2007,06,25,00,32,9.90
2007,06,25,00,33,9.90
2007,06,25,00,34,9.90
2007,06,25,00,35,9.90
2007,06,25,00,36,9.90
2007,06,25,00,37,9.90
2007,06,25,00,38,9.90
2007,06,25,00,39,9.90
2007,06,25,00,40,9.90
2007,06,25,00,41,9.90
2007,06,25,00,42,9.90
2007,06,25,00,43,9.90
2007,06,25,00,44,9.90
2007,06,25,00,45,9.90
2007,06,25,00,46,9.90
2007,06,25,00,47,9.90
2007,06,25,00,48,9.90
2007,06,25,00,49,9.90
2007,06,25,00,50,9.90
2007,06,25,00,51,9.90
2007,06,25,00,52,9.90
2007,06,25,00,53,9.90
2007,06,25,00,54,9.90
2007,06,25,00,55,9.90
2007,06,25,00,56,9.80
2007,06,25,00,57,9.80
2007,06,25,00,58,9.80
2007,06,25,00,59,9.80
2007,06,25,01,00,9.80
2007,06,25,01,01,9.80
2007,06,25,01,02,9.90
2007,06,25,01,03,9.90
2007,06,25,01,04,9.90
2007,06,25,01,05,9.90
2007,06,25,01,06,9.90
2007,06,25,01,07,9.90
2007,06,25,01,08,9.90
2007,06,25,01,09,9.90
2007,06,25,01,10,9.90
2007,06,25,01,11,9.90
2007,06,25,01,12,9.90
2007,06,25,01,13,9.90
2007,06,25,01,14,9.90
2007,06,25,01,15,9.90
2007,06,25,01,16,9.90
2007,06,25,01,17,9.90
2007,06,25,01,18,9.90
2007,06,25,01,19,9.90
2007,06,25,01,20,9.90
2007,06,25,01,21,9.90
2007,06,25,01,22,9.90
2007,06,25,01,23,9.90
2007,06,25,01,24,9.90
2007,06,25,01,25,9.90
2007,06,25,01,26,9.90
2007,06,25,01,27,9.90
2007,06,25,01,28,9.90
2007,06,25,01,29,9.90
2007,06,25,01,30,9.90
2007,06,25,01,31,9.90
2007,06,25,01,32,9.90
2007,06,25,01,33,9.90
2007,06,25,01,34,9.90
2007,06,25,01,35,9.90
2007,06,25,01,36,9.90
2007,06,25,01,37,9.80
2007,06,25,01,38,9.80
2007,06,25,01,39,9.80
2007,06,25,01,40,9.80
2007,06,25,01,41,9.80
2007,06,25,01,42,9.70
2007,06,25,01,43,9.70
2007,06,25,01,44,9.70
2007,06,25,01,45,9.70
2007,06,25,01,46,9.70
2007,06,25,01,47,9.70
2007,06,25,01,48,9.70
2007,06,25,01,49,9.70
2007,06,25,01,50,9.70
2007,06,25,01,51,9.70
2007,06,25,01,52,9.70
2007,06,25,01,53,9.70
2007,06,25,01,54,9.70
2007,06,25,01,55,9.70
2007,06,25,01,56,9.70
2007,06,25,01,57,9.70
2007,06,25,01,58,9.70
2007,06,25,01,59,9.70
2007,06,25,02,00,9.80
2007,06,25,02,01,9.80
2007,06,25,02,02,9.80
2007,06,25,02,03,9.80
2007,06,25,02,04,9.80
2007,06,25,02,05,9.80
2007,06,25,02,06,9.70
2007,06,25,02,07,9.70
2007,06,25,02,08,9.70
2007,06,25,02,09,9.70
2007,06,25,02,10,9.70
2007,06,25,02,11,9.70
2007,06,25,02,12,9.70
2007,06,25,02,13,9.70
2007,06,25,02,14,9.70
2007,06,25,02,15,9.70
2007,06,25,02,16,9.70
2007,06,25,02,17,9.70
2007,06,25,02,18,9.70
2007,06,25,02,19,9.70
2007,06,25,02,20,9.70
2007,06,25,02,21,9.70
2007,06,25,02,22,9.70
2007,06,25,02,23,9.70
2007,06,25,02,24,9.70
2007,06,25,02,25,9.70
2007,06,25,02,26,9.70
2007,06,25,02,27,9.70
2007,06,25,02,28,9.70
2007,06,25,02,29,9.70
2007,06,25,02,30,9.70
2007,06,25,02,31,9.70
2007,06,25,02,32,9.60
2007,06,25,02,33,9.50
2007,06,25,02,34,9.40
2007,06,25,02,35,9.30
2007,06,25,02,36,9.20
2007,06,25,02,37,9.20
2007,06,25,02,38,9.20
2007,06,25,02,39,9.20
2007,06,25,02,40,9.20
2007,06,25,02,41,9.10
2007,06,25,02,42,9.10
2007,06,25,02,43,9.10
2007,06,25,02,44,9.00
2007,06,25,02,45,8.90
2007,06,25,02,46,8.90
2007,06,25,02,47,8.90
2007,06,25,02,48,8.80
2007,06,25,02,49,8.80
2007,06,25,02,50,8.70
2007,06,25,02,51,8.70
2007,06,25,02,52,8.70
2007,06,25,02,53,8.70
2007,06,25,02,54,8.70
2007,06,25,02,55,8.60
2007,06,25,02,56,8.50
2007,06,25,02,57,8.50
2007,06,25,02,58,8.50
2007,06,25,02,59,8.50
2007,06,25,03,00,8.40
2007,06,25,03,01,8.40
2007,06,25,03,02,8.40
2007,06,25,03,03,8.40
2007,06,25,03,04,8.30
2007,06,25,03,05,8.30
2007,06,25,03,06,8.30
2007,06,25,03,07,8.20
2007,06,25,03,08,8.20
2007,06,25,03,09,8.20
2007,06,25,03,10,8.20
2007,06,25,03,11,8.20
2007,06,25,03,12,8.20
2007,06,25,03,13,8.20
2007,06,25,03,14,8.20
2007,06,25,03,15,8.10
2007,06,25,03,16,8.10
2007,06,25,03,17,8.10
2007,06,25,03,18,8.10
2007,06,25,03,19,8.00
2007,06,25,03,20,8.00
2007,06,25,03,21,8.00
2007,06,25,03,22,7.90
2007,06,25,03,23,7.90
2007,06,25,03,24,7.90
2007,06,25,03,25,7.90
2007,06,25,03,26,7.80
2007,06,25,03,27,7.80
2007,06,25,03,28,7.80
2007,06,25,03,29,7.80
2007,06,25,03,30,7.80
2007,06,25,03,31,7.80
2007,06,25,03,32,7.80
2007,06,25,03,33,7.80
2007,06,25,03,34,7.70
2007,06,25,03,35,7.70
2007,06,25,03,36,7.70
2007,06,25,03,37,7.70
2007,06,25,03,38,7.70
2007,06,25,03,39,7.70
2007,06,25,03,40,7.70
2007,06,25,03,41,7.70
2007,06,25,03,42,7.80
2007,06,25,03,43,7.80
2007,06,25,03,44,7.80
2007,06,25,03,45,7.80
2007,06,25,03,46,7.80
2007,06,25,03,47,7.80
2007,06,25,03,48,7.80
2007,06,25,03,49,7.80
2007,06,25,03,50,7.80
2007,06,25,03,51,7.80
2007,06,25,03,52,7.80
2007,06,25,03,53,7.80
2007,06,25,03,54,7.80
2007,06,25,03,55,7.80
2007,06,25,03,56,7.80
2007,06,25,03,57,7.80
2007,06,25,03,58,7.80
2007,06,25,03,59,7.80
2007,06,25,04,00,7.80
2007,06,25,04,01,7.80
2007,06,25,04,02,7.80
2007,06,25,04,03,7.80
2007,06,25,04,04,7.80
2007,06,25,04,05,7.80
2007,06,25,04,06,7.80
2007,06,25,04,07,7.80
2007,06,25,04,08,7.80
2007,06,25,04,09,7.80
2007,06,25,04,10,7.80
2007,06,25,04,11,7.80
2007,06,25,04,12,7.80
2007,06,25,04,13,7.80
2007,06,25,04,14,7.80
2007,06,25,04,15,7.80
2007,06,25,04,16,7.80
2007,06,25,04,17,7.80
2007,06,25,04,18,7.80
2007,06,25,04,19,7.80
2007,06,25,04,20,7.80
2007,06,25,04,21,7.80
2007,06,25,04,22,7.80
2007,06,25,04,23,7.80
2007,06,25,04,24,7.80
2007,06,25,04,25,7.80
2007,06,25,04,26,7.80
2007,06,25,04,27,7.80
2007,06,25,04,28,7.80
2007,06,25,04,29,7.80
2007,06,25,04,30,7.80
2007,06,25,04,31,7.80
2007,06,25,04,32,7.80
2007,06,25,04,33,7.80
2007,06,25,04,34,7.90
2007,06,25,04,35,7.90
2007,06,25,04,36,7.90
2007,06,25,04,37,7.90
2007,06,25,04,38,7.90
2007,06,25,04,39,7.90
2007,06,25,04,40,7.90
2007,06,25,04,41,7.80
2007,06,25,04,42,7.80
2007,06,25,04,43,7.90
2007,06,25,04,44,7.90
2007,06,25,04,45,7.90
2007,06,25,04,46,7.90
2007,06,25,04,47,7.90
2007,06,25,04,48,7.90
2007,06,25,04,49,7.90
2007,06,25,04,50,8.00
2007,06,25,04,51,8.00
2007,06,25,04,52,8.00
2007,06,25,04,53,8.00
2007,06,25,04,54,8.00
2007,06,25,04,55,8.10
2007,06,25,04,56,8.10
2007,06,25,04,57,8.10
2007,06,25,04,58,8.10
2007,06,25,04,59,8.20
2007,06,25,05,00,8.20
2007,06,25,05,01,8.20
2007,06,25,05,02,8.20
2007,06,25,05,03,8.20
2007,06,25,05,04,8.20
2007,06,25,05,05,8.20
2007,06,25,05,06,8.20
2007,06,25,05,07,8.20
2007,06,25,05,08,8.20
2007,06,25,05,09,8.20
2007,06,25,05,10,8.20
2007,06,25,05,11,8.20
2007,06,25,05,12,8.20
2007,06,25,05,13,8.20
2007,06,25,05,14,8.20
2007,06,25,05,15,8.20
2007,06,25,05,16,8.30
2007,06,25,05,17,8.30
2007,06,25,05,18,8.30
2007,06,25,05,19,8.30
2007,06,25,05,20,8.30
2007,06,25,05,21,8.30
2007,06,25,05,22,8.30
2007,06,25,05,23,8.30
2007,06,25,05,24,8.30
2007,06,25,05,25,8.30
2007,06,25,05,26,8.30
2007,06,25,05,27,8.30
2007,06,25,05,28,8.30
2007,06,25,05,29,8.30
2007,06,25,05,30,8.30
2007,06,25,05,31,8.30
2007,06,25,05,32,8.30
2007,06,25,05,33,8.30
2007,06,25,05,34,8.30
2007,06,25,05,35,8.40
2007,06,25,05,36,8.40
2007,06,25,05,37,8.40
2007,06,25,05,38,8.40
2007,06,25,05,39,8.40
2007,06,25,05,40,8.40
2007,06,25,05,41,8.40
2007,06,25,05,42,8.50
2007,06,25,05,43,8.50
2007,06,25,05,44,8.50
2007,06,25,05,45,8.50
2007,06,25,05,46,8.50
2007,06,25,05,47,8.50
2007,06,25,05,48,8.50
2007,06,25,05,49,8.50
2007,06,25,05,50,8.50
2007,06,25,05,51,8.50
2007,06,25,05,52,8.50
2007,06,25,05,53,8.50
2007,06,25,05,54,8.50
2007,06,25,05,55,8.50
2007,06,25,05,56,8.60
2007,06,25,05,57,8.60
2007,06,25,05,58,8.60
2007,06,25,05,59,8.60
2007,06,25,06,00,8.60
2007,06,25,06,01,8.60
2007,06,25,06,02,8.60
2007,06,25,06,03,8.60
2007,06,25,06,04,8.70
2007,06,25,06,05,8.70
2007,06,25,06,06,8.70
2007,06,25,06,07,8.70
2007,06,25,06,08,8.70
2007,06,25,06,09,8.70
2007,06,25,06,10,8.70
2007,06,25,06,11,8.70
2007,06,25,06,12,8.70
2007,06,25,06,13,8.70
2007,06,25,06,14,8.70
2007,06,25,06,15,8.70
2007,06,25,06,16,8.70
2007,06,25,06,17,8.70
2007,06,25,06,18,8.70
2007,06,25,06,19,8.70
2007,06,25,06,20,8.70
2007,06,25,06,21,8.70
2007,06,25,06,22,8.70
2007,06,25,06,23,8.70
2007,06,25,06,24,8.70
2007,06,25,06,25,8.70
2007,06,25,06,26,8.70
2007,06,25,06,27,8.70
2007,06,25,06,28,8.70
2007,06,25,06,29,8.70
2007,06,25,06,30,8.80
2007,06,25,06,31,8.80
2007,06,25,06,32,8.80
2007,06,25,06,33,8.80
2007,06,25,06,34,8.80
2007,06,25,06,35,8.90
2007,06,25,06,36,8.90
2007,06,25,06,37,8.90
2007,06,25,06,38,9.00
2007,06,25,06,39,9.00
2007,06,25,06,40,9.00
2007,06,25,06,41,9.00
2007,06,25,06,42,9.10
2007,06,25,06,43,9.10
2007,06,25,06,44,9.10
2007,06,25,06,45,9.20
2007,06,25,06,46,9.20
2007,06,25,06,47,9.20
2007,06,25,06,48,9.20
2007,06,25,06,49,9.20
2007,06,25,06,50,9.20
2007,06,25,06,51,9.20
2007,06,25,06,52,9.20
2007,06,25,06,53,9.30
2007,06,25,06,54,9.30
2007,06,25,06,55,9.30
2007,06,25,06,56,9.30
2007,06,25,06,57,9.40
2007,06,25,06,58,9.40
2007,06,25,06,59,9.40
2007,06,25,07,00,9.40
2007,06,25,07,01,9.50
2007,06,25,07,02,9.50
2007,06,25,07,03,9.50
2007,06,25,07,04,9.50
2007,06,25,07,05,9.50
2007,06,25,07,06,9.50
2007,06,25,07,07,9.60
2007,06,25,07,08,9.60
2007,06,25,07,09,9.60
2007,06,25,07,10,9.60
2007,06,25,07,11,9.60
2007,06,25,07,12,9.70
2007,06,25,07,13,9.70
2007,06,25,07,14,9.70
2007,06,25,07,15,9.70
2007,06,25,07,16,9.70
2007,06,25,07,17,9.70
2007,06,25,07,18,9.70
2007,06,25,07,19,9.70
2007,06,25,07,20,9.70
2007,06,25,07,21,9.70
2007,06,25,07,22,9.70
2007,06,25,07,23,9.70
2007,06,25,07,24,9.70
2007,06,25,07,25,9.70
2007,06,25,07,26,9.70
2007,06,25,07,27,9.70
2007,06,25,07,28,9.70
2007,06,25,07,29,9.80
2007,06,25,07,30,9.80
2007,06,25,07,31,9.90
2007,06,25,07,32,9.90
2007,06,25,07,33,10.00
2007,06,25,07,34,10.10
2007,06,25,07,35,10.10
2007,06,25,07,36,10.10
2007,06,25,07,37,10.20
2007,06,25,07,38,10.20
2007,06,25,07,39,10.20
2007,06,25,07,40,10.20
2007,06,25,07,41,10.20
2007,06,25,07,42,10.30
2007,06,25,07,43,10.30
2007,06,25,07,44,10.30
2007,06,25,07,45,10.30
2007,06,25,07,46,10.30
2007,06,25,07,47,10.30
2007,06,25,07,48,10.30
2007,06,25,07,49,10.30
2007,06,25,07,50,10.30
2007,06,25,07,51,10.40
2007,06,25,07,52,10.40
2007,06,25,07,53,10.40
2007,06,25,07,54,10.40
2007,06,25,07,55,10.50
2007,06,25,07,56,10.60
2007,06,25,07,57,10.70
2007,06,25,07,58,10.80
2007,06,25,07,59,10.90
2007,06,25,08,00,10.90
2007,06,25,08,01,11.00
2007,06,25,08,02,11.10
2007,06,25,08,03,11.20
2007,06,25,08,04,11.20
2007,06,25,08,05,11.30
2007,06,25,08,06,11.30
2007,06,25,08,07,11.40
2007,06,25,08,08,11.50
2007,06,25,08,09,11.60
2007,06,25,08,10,11.60
2007,06,25,08,11,11.60
2007,06,25,08,12,11.70
2007,06,25,08,13,11.70
2007,06,25,08,14,11.80
2007,06,25,08,15,11.80
2007,06,25,08,16,11.80
2007,06,25,08,17,11.80
2007,06,25,08,18,11.80
2007,06,25,08,19,11.80
2007,06,25,08,20,11.80
2007,06,25,08,21,11.80
2007,06,25,08,22,11.90
2007,06,25,08,23,11.90
2007,06,25,08,24,11.90
2007,06,25,08,25,11.90
2007,06,25,08,26,12.00
2007,06,25,08,27,12.00
2007,06,25,08,28,12.00
2007,06,25,08,29,12.00
2007,06,25,08,30,12.00
2007,06,25,08,31,12.10
2007,06,25,08,32,12.10
2007,06,25,08,33,12.10
2007,06,25,08,34,12.20
2007,06,25,08,35,12.20
2007,06,25,08,36,12.30
2007,06,25,08,37,12.30
2007,06,25,08,38,12.30
2007,06,25,08,39,12.30
2007,06,25,08,40,12.40
2007,06,25,08,41,12.40
2007,06,25,08,42,12.50
2007,06,25,08,43,12.50
2007,06,25,08,44,12.50
2007,06,25,08,45,12.60
2007,06,25,08,46,12.60
2007,06,25,08,47,12.70
2007,06,25,08,48,12.70
2007,06,25,08,49,12.70
2007,06,25,08,50,12.80
2007,06,25,08,51,12.80
2007,06,25,08,52,12.80
2007,06,25,08,53,12.70
2007,06,25,08,54,12.70
2007,06,25,08,55,12.70
2007,06,25,08,56,12.70
2007,06,25,08,57,12.70
2007,06,25,08,58,12.70
2007,06,25,08,59,12.70
2007,06,25,09,00,12.70
2007,06,25,09,01,12.70
2007,06,25,09,02,12.70
2007,06,25,09,03,12.70
2007,06,25,09,04,12.80
2007,06,25,09,05,12.80
2007,06,25,09,06,12.80
2007,06,25,09,07,12.80
2007,06,25,09,08,12.80
2007,06,25,09,09,12.80
2007,06,25,09,10,12.80
2007,06,25,09,11,12.80
2007,06,25,09,12,12.80
2007,06,25,09,13,12.90
2007,06,25,09,14,12.90
2007,06,25,09,15,12.90
2007,06,25,09,16,13.00
2007,06,25,09,17,13.00
2007,06,25,09,18,13.00
2007,06,25,09,19,13.00
2007,06,25,09,20,13.00
2007,06,25,09,21,13.00
2007,06,25,09,22,13.10
2007,06,25,09,23,13.10
2007,06,25,09,24,13.10
2007,06,25,09,25,13.10
2007,06,25,09,26,13.10
2007,06,25,09,27,13.10
2007,06,25,09,28,13.10
2007,06,25,09,29,13.10
2007,06,25,09,30,13.10
2007,06,25,09,31,13.10
2007,06,25,09,32,13.20
2007,06,25,09,33,13.20
2007,06,25,09,34,13.30
2007,06,25,09,35,13.30
2007,06,25,09,36,13.30
2007,06,25,09,37,13.30
2007,06,25,09,38,13.30
2007,06,25,09,39,13.40
2007,06,25,09,40,13.40
2007,06,25,09,41,13.40
2007,06,25,09,42,13.40
2007,06,25,09,43,13.40
2007,06,25,09,44,13.40
2007,06,25,09,45,13.40
2007,06,25,09,46,13.40
2007,06,25,09,47,13.40
2007,06,25,09,48,13.40
2007,06,25,09,49,13.40
2007,06,25,09,50,13.40
2007,06,25,09,51,13.40
2007,06,25,09,52,13.40
2007,06,25,09,53,13.40
2007,06,25,09,54,13.40
2007,06,25,09,55,13.40
2007,06,25,09,56,13.40
2007,06,25,09,57,13.40
2007,06,25,09,58,13.40
2007,06,25,09,59,13.40
2007,06,25,10,00,13.40
2007,06,25,10,01,13.40
2007,06,25,10,02,13.50
2007,06,25,10,03,13.50
2007,06,25,10,04,13.50
2007,06,25,10,05,13.50
2007,06,25,10,06,13.50
2007,06,25,10,07,13.50
2007,06,25,10,08,13.50
2007,06,25,10,09,13.60
2007,06,25,10,10,13.60
2007,06,25,10,11,13.60
2007,06,25,10,12,13.60
2007,06,25,10,13,13.60
2007,06,25,10,14,13.60
2007,06,25,10,15,13.60
2007,06,25,10,16,13.70
2007,06,25,10,17,13.70
2007,06,25,10,18,13.70
2007,06,25,10,19,13.70
2007,06,25,10,20,13.70
2007,06,25,10,21,13.70
2007,06,25,10,22,13.80
2007,06,25,10,23,13.80
2007,06,25,10,24,13.80
2007,06,25,10,25,13.80
2007,06,25,10,26,13.80
2007,06,25,10,27,13.80
2007,06,25,10,28,13.90
2007,06,25,10,29,13.90
2007,06,25,10,30,13.90
2007,06,25,10,31,13.90
2007,06,25,10,32,13.90
2007,06,25,10,33,13.90
2007,06,25,10,34,13.90
2007,06,25,10,35,13.80
2007,06,25,10,36,13.80
2007,06,25,10,37,13.70
2007,06,25,10,38,13.70
2007,06,25,10,39,13.70
2007,06,25,10,40,13.70
2007,06,25,10,41,13.60
2007,06,25,10,42,13.60
2007,06,25,10,43,13.60
2007,06,25,10,44,13.60
2007,06,25,10,45,13.50
2007,06,25,10,46,13.50
2007,06,25,10,47,13.50
2007,06,25,10,48,13.40
2007,06,25,10,49,13.40
2007,06,25,10,50,13.40
2007,06,25,10,51,13.30
2007,06,25,10,52,13.30
2007,06,25,10,53,13.30
2007,06,25,10,54,13.30
2007,06,25,10,55,13.30
2007,06,25,10,56,13.30
2007,06,25,10,57,13.20
2007,06,25,10,58,13.20
2007,06,25,10,59,13.20
2007,06,25,11,00,13.20
2007,06,25,11,01,13.10
2007,06,25,11,02,13.10
2007,06,25,11,03,13.00
2007,06,25,11,04,13.00
2007,06,25,11,05,12.90
2007,06,25,11,06,12.90
2007,06,25,11,07,12.80
2007,06,25,11,08,12.80
2007,06,25,11,09,12.80
2007,06,25,11,10,12.70
2007,06,25,11,11,12.70
2007,06,25,11,12,12.60
2007,06,25,11,13,12.60
2007,06,25,11,14,12.60
2007,06,25,11,15,12.50
2007,06,25,11,16,12.50
2007,06,25,11,17,12.50
2007,06,25,11,18,12.40
2007,06,25,11,19,12.30
2007,06,25,11,20,12.30
2007,06,25,11,21,12.30
2007,06,25,11,22,12.20
2007,06,25,11,23,12.20
2007,06,25,11,24,12.20
2007,06,25,11,25,12.20
2007,06,25,11,26,12.20
2007,06,25,11,27,12.10
2007,06,25,11,28,12.10
2007,06,25,11,29,12.10
2007,06,25,11,30,12.10
2007,06,25,11,31,12.10
2007,06,25,11,32,12.10
2007,06,25,11,33,12.10
2007,06,25,11,34,12.10
2007,06,25,11,35,12.10
2007,06,25,11,36,12.00
2007,06,25,11,37,12.00
2007,06,25,11,38,12.00
2007,06,25,11,39,12.00
2007,06,25,11,40,12.00
2007,06,25,11,41,12.00
2007,06,25,11,42,12.00
2007,06,25,11,43,12.10
2007,06,25,11,44,12.10
2007,06,25,11,45,12.10
2007,06,25,11,46,12.10
2007,06,25,11,47,12.10
2007,06,25,11,48,12.10
2007,06,25,11,49,12.10
2007,06,25,11,50,12.10
2007,06,25,11,51,12.10
2007,06,25,11,52,12.10
2007,06,25,11,53,12.10
2007,06,25,11,54,12.10
2007,06,25,11,55,12.10
2007,06,25,11,56,12.10
2007,06,25,11,57,12.10
2007,06,25,11,58,12.20
2007,06,25,11,59,12.20
2007,06,25,12,00,12.20
2007,06,25,12,01,12.20
2007,06,25,12,02,12.30
2007,06,25,12,03,12.30
2007,06,25,12,04,12.30
2007,06,25,12,05,12.30
2007,06,25,12,06,12.30
2007,06,25,12,07,12.30
2007,06,25,12,08,12.30
2007,06,25,12,09,12.30
2007,06,25,12,10,12.40
2007,06,25,12,11,12.40
2007,06,25,12,12,12.40
2007,06,25,12,13,12.40
2007,06,25,12,14,12.50
2007,06,25,12,15,12.50
2007,06,25,12,16,12.50
2007,06,25,12,17,12.60
2007,06,25,12,18,12.60
2007,06,25,12,19,12.70
2007,06,25,12,20,12.70
2007,06,25,12,21,12.80
2007,06,25,12,22,12.80
2007,06,25,12,23,12.80
2007,06,25,12,24,12.90
2007,06,25,12,25,12.90
2007,06,25,12,26,13.00
2007,06,25,12,27,13.00
2007,06,25,12,28,13.00
2007,06,25,12,29,13.10
2007,06,25,12,30,13.10
2007,06,25,12,31,13.10
2007,06,25,12,32,13.10
2007,06,25,12,33,13.10
2007,06,25,12,34,13.10
2007,06,25,12,35,13.10
2007,06,25,12,36,13.10
2007,06,25,12,37,13.10
2007,06,25,12,38,13.00
2007,06,25,12,39,13.00
2007,06,25,12,40,13.00
2007,06,25,12,41,13.00
2007,06,25,12,42,13.00
2007,06,25,12,43,13.00
2007,06,25,12,44,12.90
2007,06,25,12,45,12.90
2007,06,25,12,46,12.90
2007,06,25,12,47,12.90
2007,06,25,12,48,13.00
2007,06,25,12,49,13.00
2007,06,25,12,50,13.00
2007,06,25,12,51,13.10
2007,06,25,12,52,13.10
2007,06,25,12,53,13.10
2007,06,25,12,54,13.10
2007,06,25,12,55,13.20
2007,06,25,12,56,13.20
2007,06,25,12,57,13.20
2007,06,25,12,58,13.30
2007,06,25,12,59,13.30
2007,06,25,13,00,13.30
2007,06,25,13,01,13.40
2007,06,25,13,02,13.50
2007,06,25,13,03,13.50
2007,06,25,13,04,13.60
2007,06,25,13,05,13.70
2007,06,25,13,06,13.70
2007,06,25,13,07,13.80
2007,06,25,13,08,13.80
2007,06,25,13,09,13.80
2007,06,25,13,10,13.90
2007,06,25,13,11,14.00
2007,06,25,13,12,14.10
2007,06,25,13,13,14.20
2007,06,25,13,14,14.20
2007,06,25,13,15,14.30
2007,06,25,13,16,14.40
2007,06,25,13,17,14.50
2007,06,25,13,18,14.70
2007,06,25,13,19,14.90
2007,06,25,13,20,15.00
2007,06,25,13,21,15.10
2007,06,25,13,22,15.30
2007,06,25,13,23,15.30
2007,06,25,13,24,15.30
2007,06,25,13,25,15.40
2007,06,25,13,26,15.30
2007,06,25,13,27,15.30
2007,06,25,13,28,15.20
2007,06,25,13,29,15.10
2007,06,25,13,30,15.00
2007,06,25,13,31,15.00
2007,06,25,13,32,15.00
2007,06,25,13,33,14.90
2007,06,25,13,34,14.90
2007,06,25,13,35,15.10
2007,06,25,13,36,15.20
2007,06,25,13,37,15.30
2007,06,25,13,38,15.30
2007,06,25,13,39,15.40
2007,06,25,13,40,15.50
2007,06,25,13,41,15.60
2007,06,25,13,42,15.70
2007,06,25,13,43,15.70
2007,06,25,13,44,15.80
2007,06,25,13,45,15.80
2007,06,25,13,46,15.80
2007,06,25,13,47,15.80
2007,06,25,13,48,15.70
2007,06,25,13,49,15.60
2007,06,25,13,50,15.60
2007,06,25,13,51,15.60
2007,06,25,13,52,15.60
2007,06,25,13,53,15.60
2007,06,25,13,54,15.70
2007,06,25,13,55,15.70
2007,06,25,13,56,15.70
2007,06,25,13,57,15.70
2007,06,25,13,58,15.70
2007,06,25,13,59,15.70
2007,06,25,14,00,15.70
2007,06,25,14,01,15.70
2007,06,25,14,02,15.80
2007,06,25,14,03,15.80
2007,06,25,14,04,15.90
2007,06,25,14,05,15.90
2007,06,25,14,06,15.90
2007,06,25,14,07,15.90
2007,06,25,14,08,15.90
2007,06,25,14,09,16.00
2007,06,25,14,10,16.10
2007,06,25,14,11,16.20
2007,06,25,14,12,16.40
2007,06,25,14,13,16.60
2007,06,25,14,14,16.60
2007,06,25,14,15,16.70
2007,06,25,14,16,16.70
2007,06,25,14,17,16.80
2007,06,25,14,18,16.80
2007,06,25,14,19,16.80
2007,06,25,14,20,16.70
2007,06,25,14,21,16.70
2007,06,25,14,22,16.70
2007,06,25,14,23,16.70
2007,06,25,14,24,16.60
2007,06,25,14,25,16.40
2007,06,25,14,26,16.30
2007,06,25,14,27,16.20
2007,06,25,14,28,16.00
2007,06,25,14,29,15.90
2007,06,25,14,30,15.90
2007,06,25,14,31,15.80
2007,06,25,14,32,15.80
2007,06,25,14,33,15.90
2007,06,25,14,34,15.90
2007,06,25,14,35,15.90
2007,06,25,14,36,15.90
2007,06,25,14,37,16.00
2007,06,25,14,38,16.10
2007,06,25,14,39,16.10
2007,06,25,14,40,16.20
2007,06,25,14,41,16.30
2007,06,25,14,42,16.50
2007,06,25,14,43,16.50
2007,06,25,14,44,16.40
2007,06,25,14,45,16.40
2007,06,25,14,46,16.40
2007,06,25,14,47,16.40
2007,06,25,14,48,16.30
2007,06,25,14,49,16.30
2007,06,25,14,50,16.20
2007,06,25,14,51,16.30
2007,06,25,14,52,16.30
2007,06,25,14,53,16.30
2007,06,25,14,54,16.30
2007,06,25,14,55,16.30
2007,06,25,14,56,16.30
2007,06,25,14,57,16.30
2007,06,25,14,58,16.30
2007,06,25,14,59,16.30
2007,06,25,15,00,16.20
2007,06,25,15,01,16.30
2007,06,25,15,02,16.30
2007,06,25,15,03,16.40
2007,06,25,15,04,16.40
2007,06,25,15,05,16.40
2007,06,25,15,06,16.60
2007,06,25,15,07,16.70
2007,06,25,15,08,16.80
2007,06,25,15,09,16.90
2007,06,25,15,10,16.90
2007,06,25,15,11,16.90
2007,06,25,15,12,16.80
2007,06,25,15,13,16.50
2007,06,25,15,14,16.40
2007,06,25,15,15,16.40
2007,06,25,15,16,16.40
2007,06,25,15,17,16.50
2007,06,25,15,18,16.60
2007,06,25,15,19,16.60
2007,06,25,15,20,16.70
2007,06,25,15,21,16.70
2007,06,25,15,22,16.70
2007,06,25,15,23,16.70
2007,06,25,15,24,16.80
2007,06,25,15,25,16.80
2007,06,25,15,26,16.90
2007,06,25,15,27,16.90
2007,06,25,15,28,16.90
2007,06,25,15,29,16.90
2007,06,25,15,30,17.00
2007,06,25,15,31,17.00
2007,06,25,15,32,17.00
2007,06,25,15,33,17.00
2007,06,25,15,34,17.00
2007,06,25,15,35,17.00
2007,06,25,15,36,17.00
2007,06,25,15,37,16.90
2007,06,25,15,38,16.80
2007,06,25,15,39,16.70
2007,06,25,15,40,16.70
2007,06,25,15,41,16.80
2007,06,25,15,42,16.90
2007,06,25,15,43,16.90
2007,06,25,15,44,17.00
2007,06,25,15,45,17.00
2007,06,25,15,46,17.10
2007,06,25,15,47,17.10
2007,06,25,15,48,17.10
2007,06,25,15,49,17.10
2007,06,25,15,50,17.10
2007,06,25,15,51,17.10
2007,06,25,15,52,17.10
2007,06,25,15,53,17.10
2007,06,25,15,54,17.10
2007,06,25,15,55,17.10
2007,06,25,15,56,17.10
2007,06,25,15,57,17.10
2007,06,25,15,58,17.10
2007,06,25,15,59,17.10
2007,06,25,16,00,17.10
2007,06,25,16,01,17.10
2007,06,25,16,02,17.20
2007,06,25,16,03,17.20
2007,06,25,16,04,17.20
2007,06,25,16,05,17.20
2007,06,25,16,06,17.10
2007,06,25,16,07,17.10
2007,06,25,16,08,17.00
2007,06,25,16,09,17.00
2007,06,25,16,10,17.00
2007,06,25,16,11,17.00
2007,06,25,16,12,17.00
2007,06,25,16,13,17.00
2007,06,25,16,14,17.00
2007,06,25,16,15,17.00
2007,06,25,16,16,16.90
2007,06,25,16,17,16.90
2007,06,25,16,18,16.90
2007,06,25,16,19,16.80
2007,06,25,16,20,16.80
2007,06,25,16,21,16.70
2007,06,25,16,22,16.70
2007,06,25,16,23,16.70
2007,06,25,16,24,16.70
2007,06,25,16,25,16.60
2007,06,25,16,26,16.60
2007,06,25,16,27,16.60
2007,06,25,16,28,16.60
2007,06,25,16,29,16.60
2007,06,25,16,30,16.60
2007,06,25,16,31,16.60
2007,06,25,16,32,16.60
2007,06,25,16,33,16.60
2007,06,25,16,34,16.60
2007,06,25,16,35,16.60
2007,06,25,16,36,16.50
2007,06,25,16,37,16.40
2007,06,25,16,38,16.40
2007,06,25,16,39,16.40
2007,06,25,16,40,16.40
2007,06,25,16,41,16.40
2007,06,25,16,42,16.40
2007,06,25,16,43,16.40
2007,06,25,16,44,16.40
2007,06,25,16,45,16.40
2007,06,25,16,46,16.40
2007,06,25,16,47,16.40
2007,06,25,16,48,16.40
2007,06,25,16,49,16.40
2007,06,25,16,50,16.40
2007,06,25,16,51,16.40
2007,06,25,16,52,16.40
2007,06,25,16,53,16.40
2007,06,25,16,54,16.40
2007,06,25,16,55,16.40
2007,06,25,16,56,16.40
2007,06,25,16,57,16.40
2007,06,25,16,58,16.40
2007,06,25,16,59,16.40
2007,06,25,17,00,16.40
2007,06,25,17,01,16.40
2007,06,25,17,02,16.40
2007,06,25,17,03,16.40
2007,06,25,17,04,16.40
2007,06,25,17,05,16.40
2007,06,25,17,06,16.40
2007,06,25,17,07,16.40
2007,06,25,17,08,16.40
2007,06,25,17,09,16.40
2007,06,25,17,10,16.40
2007,06,25,17,11,16.40
2007,06,25,17,12,16.40
2007,06,25,17,13,16.40
2007,06,25,17,14,16.40
2007,06,25,17,15,16.30
2007,06,25,17,16,16.30
2007,06,25,17,17,16.40
2007,06,25,17,18,16.40
2007,06,25,17,19,16.40
2007,06,25,17,20,16.40
2007,06,25,17,21,16.40
2007,06,25,17,22,16.40
2007,06,25,17,23,16.40
2007,06,25,17,24,16.40
2007,06,25,17,25,16.40
2007,06,25,17,26,16.40
2007,06,25,17,27,16.40
2007,06,25,17,28,16.40
2007,06,25,17,29,16.40
2007,06,25,17,30,16.40
2007,06,25,17,31,16.40
2007,06,25,17,32,16.40
2007,06,25,17,33,16.40
2007,06,25,17,34,16.40
2007,06,25,17,35,16.40
2007,06,25,17,36,16.40
2007,06,25,17,37,16.40
2007,06,25,17,38,16.40